[[{"header":{"parameterUnit":"m.s-1","parameterCategory":1,"la1":30.2991,"la2":30.254,"lo1":-89.0895,"lo2":-89.0444,"dy":0.0017,"dx":0.0017,"nx":28,"ny":28,"refTime":"2024-11-28T03:00:00:Z","depth":0,"parameterNumber":2,"parameterNumberName":"U-component_of_WINDS"},"data":[0,0,0,0,0,0,0,0,0,0,0,0,0,0,0,0,0,0,0,0,0,0,0,0,0,0,0,0,0,0,0,0,0,0,0,0,0,0,0,0,0,0,0,0,0,0,0,0,0,0,0,0,0,0,0,0,0,0,0.9948,0.9948,0,0.9988,0.9988,0.9989,0.997,0.9969,0.9967,0.9967,1.001,1.0012,1.0014,0,0,0,0,0,0,0,0,0,0,0,0,0,0.9857,0.9858,0.9948,0.9948,0.9949,0.9988,0.9988,0.9989,0.997,0.9968,0.9967,0.9966,1.0009,1.0012,1.0014,0,0,0,0,0,0,0,0,0,0,0,0,0,0.9897,0.9859,0.9947,0.9944,0.9944,0.9988,0.9988,0.9989,0.997,0.9968,0.9967,0.9965,1.0008,1.0012,1.0015,1.0065,0,0,1.0024,1.0026,0,0,0,0,0,0,0,0,0.9894,0.99,0.9944,0.9944,0.9944,0.9972,0.9972,1.0015,0.997,0.996,0.9966,0.9965,0.9999,1.0003,1.0014,1.0067,1.0069,1.0025,1.0027,1.0028,1.0029,0,0,0,0,0,0,0,0.9892,0.9898,0.9964,0.9944,0.9945,0.9941,0.9945,0.998,0.9988,0.9961,0.996,0.9964,0.9999,1.0011,1.0015,1.007,1.0025,1.0027,1.0029,1.0031,1.0169,1.0171,0,0,0,0,0,0,0.9889,0.9896,0.9962,0.9965,0.9915,0.9944,0.9948,0.9965,0.9987,0.9989,0.9966,0.9963,1.0006,1.0011,1.0016,1.0078,1.0028,1.0031,1.0033,1.0167,1.0169,1.0171,0,0,0,0,0,0,0.9887,0.9895,0.9961,0.993,0.9938,0.9947,0.9966,0.9966,0.9978,0.9991,0.9992,0.9977,1.0005,1.0012,1.0053,1.0079,1.0032,1.0035,1.0165,1.0168,1.017,1.0202,0,0,0,0,0,0,0.9884,0.9894,0.9913,0.9931,0.994,0.9997,0.9967,0.9968,0.9984,0.9981,1.0001,1.0003,1.0004,1.0049,1.0057,1.0083,1.0038,1.0163,1.0166,1.0169,1.0199,1.0205,1.0211,0,0,0,0,0,0.9881,0.992,0.9914,0.9922,0.9963,0.9998,1.0004,1.0003,0.9986,1.0005,1.0013,1.0003,1.0075,1.0053,1.0062,1.0089,1.0161,1.0165,1.0169,1.0196,1.0204,1.0211,0,0,0,0,0,0,0.9906,0.9922,0.9916,0.9961,0.9979,0.9995,1.0019,1.0012,1.0034,1.0031,1.003,1.0035,1.0079,1.0088,1.0064,1.014,1.0116,1.0122,1.0133,1.0141,1.0147,1.0144,1.004,0,0,0,0,0,0.9916,0.9943,0.9956,0.9995,1.0004,1.001,1.0025,1.0024,1.0042,1.0049,1.006,1.0079,1.0106,1.0123,1.0149,1.0199,1.0205,1.0223,1.0229,1.0234,1.024,1.0269,1.0277,1.0184,1.0184,1.0184,0,0,0.9939,0.9951,0.9968,1.0001,1.0014,1.0042,1.0016,1.0047,1.0068,1.0054,1.0094,1.0103,1.0124,1.0171,1.0192,1.018,1.0266,1.0239,1.0243,1.0246,1.0274,1.0282,1.029,1.0187,1.0187,1.0186,0,0,0.9995,1.0006,1.0041,1.0054,1.0074,1.0078,1.0086,1.0104,1.011,1.015,1.014,1.0166,1.0212,1.0227,1.0241,1.0304,1.0296,1.0312,1.0345,1.0373,1.0381,1.0387,1.0411,1.0419,1.0317,1.0317,1.0318,0,1.002,1.0062,1.0059,1.0091,1.0107,1.0094,1.013,1.0143,1.0171,1.0182,1.0168,1.0227,1.0239,1.0291,1.0306,1.0317,1.0328,1.031,1.038,1.0386,1.0392,1.0415,1.0424,1.0319,1.0319,1.0319,1.0319,0,1.0093,1.0122,1.0148,1.0174,1.0192,1.0226,1.023,1.0249,1.0246,1.0252,1.0294,1.0309,1.0338,1.0349,1.0347,1.0401,1.0393,1.0379,1.0354,1.0403,1.0425,1.0433,1.0322,1.0322,1.0321,1.0321,0,0,1.0165,1.0191,1.02,1.0213,1.0234,1.0257,1.0291,1.0319,1.0336,1.0355,1.0384,1.0424,1.0412,1.0428,1.0427,1.0451,1.0502,1.0435,1.0435,1.0448,1.0564,1.0575,1.0585,1.0496,1.0498,1.0499,1.0563,0,1.0223,1.0282,1.0281,1.0336,1.0364,1.0352,1.0382,1.0399,1.0406,1.0431,1.0438,1.0467,1.0448,1.0458,1.0481,1.0491,1.0525,1.0486,1.0525,1.0526,1.0521,1.0596,1.0607,1.0667,1.0571,1.0572,1.0573,0,1.0299,1.0321,1.0378,1.0397,1.0409,1.0435,1.0461,1.0485,1.0505,1.0508,1.0526,1.0521,1.0557,1.053,1.058,1.0553,1.0569,1.0576,1.0579,1.0583,1.0553,1.0604,1.0686,1.0695,1.0586,1.0585,1.0584,0,1.0348,1.0392,1.0432,1.0443,1.0465,1.0484,1.0495,1.0513,1.053,1.0553,1.0564,1.0591,1.0607,1.0628,1.0632,1.0612,1.0682,1.0656,1.0687,1.0687,1.0703,1.0702,1.079,1.0712,1.0711,1.0711,1.0711,0,1.0413,1.0449,1.0454,1.0479,1.0519,1.0519,1.0559,1.0568,1.0584,1.0612,1.0604,1.063,1.0632,1.0659,1.0662,1.0704,1.071,1.0715,1.0715,1.0716,1.0716,1.0727,1.0724,1.0714,1.0713,1.0713,1.0712,0,1.0475,1.0479,1.0523,1.0541,1.0546,1.0575,1.0591,1.0615,1.0621,1.0656,1.0664,1.0674,1.0705,1.071,1.0748,1.075,1.08,1.0796,1.0793,1.0793,1.0825,1.0822,1.0924,1.0938,1.0849,1.085,1.0851,0,1.0517,1.0544,1.0565,1.0583,1.0594,1.0622,1.064,1.0641,1.066,1.0685,1.0706,1.0737,1.0762,1.0813,1.0824,1.0853,1.085,1.0883,1.0854,1.0855,1.0852,1.0851,1.0854,1.0889,1.089,1.0891,1.0892,0,1.0591,1.0593,1.0618,1.0645,1.0666,1.0687,1.0707,1.0722,1.0726,1.0748,1.078,1.0799,1.0837,1.0868,1.0897,1.0908,1.0902,1.0901,1.091,1.0912,1.091,1.0912,1.081,1.0899,1.0898,1.0898,1.0897,1.0897,1.0645,1.0669,1.0688,1.0717,1.0733,1.0752,1.0776,1.0785,1.0811,1.0842,1.0841,1.0877,1.0897,1.0935,1.0949,1.0978,1.0967,1.098,1.0983,1.0986,1.099,1.0904,1.0983,1.0982,1.0982,1.0982,1.0982,0,1.072,1.0732,1.0759,1.0787,1.081,1.0801,1.0823,1.0843,1.0874,1.0894,1.0918,1.0956,1.0986,1.1,1.103,1.105,1.1048,1.1058,1.1058,1.1061,1.0997,1.0987,1.106,1.106,1.106,1.106,1.106,1.106,1.0762,1.0803,1.0807,1.0856,1.0868,1.0903,1.0916,1.0934,1.095,1.0992,1.1017,1.1025,1.1043,1.1074,1.1102,1.1106,1.1118,1.113,1.1132,1.1073,1.1065,1.1057,1.1048,1.1132,1.1132,1.1193,1.1194,1.1194]},{"header":{"parameterUnit":"m.s-1","parameterCategory":1,"la1":30.2991,"la2":30.254,"lo1":-89.0895,"lo2":-89.0444,"dy":0.0017,"dx":0.0017,"nx":28,"ny":28,"refTime":"2024-11-28T03:00:00:Z","depth":0,"parameterNumber":3,"parameterNumberName":"V-component_of_WINDS"},"data":[0,0,0,0,0,0,0,0,0,0,0,0,0,0,0,0,0,0,0,0,0,0,0,0,0,0,0,0,0,0,0,0,0,0,0,0,0,0,0,0,0,0,0,0,0,0,0,0,0,0,0,0,0,0,0,0,0,0,6.0759,6.0761,0,6.0931,6.0933,6.0935,6.0943,6.0941,6.0939,6.0938,6.111,6.1116,6.1123,0,0,0,0,0,0,0,0,0,0,0,0,0,6.0435,6.044,6.0759,6.0761,6.0763,6.0931,6.0933,6.0935,6.0944,6.0941,6.0939,6.0937,6.1108,6.1116,6.1123,0,0,0,0,0,0,0,0,0,0,0,0,0,6.0588,6.0442,6.0758,6.0788,6.0792,6.093,6.0933,6.0936,6.0944,6.0941,6.0938,6.0935,6.1106,6.1115,6.1124,6.1244,0,0,6.1154,6.1158,0,0,0,0,0,0,0,0,6.0579,6.06,6.0781,6.0786,6.0791,6.0913,6.0882,6.1039,6.0945,6.0886,6.0937,6.0934,6.1047,6.1061,6.11,6.1252,6.126,6.1155,6.1161,6.1165,6.1168,0,0,0,0,0,0,0,6.0568,6.0592,6.0827,6.0784,6.079,6.0791,6.081,6.0912,6.0981,6.0891,6.0892,6.0913,6.1049,6.109,6.1104,6.1262,6.1155,6.1163,6.1169,6.1173,6.1523,6.1526,0,0,0,0,0,0,6.0553,6.0583,6.0821,6.0832,6.0676,6.0799,6.082,6.0877,6.098,6.0993,6.0915,6.0912,6.1075,6.1092,6.111,6.1258,6.1165,6.1174,6.118,6.1519,6.1523,6.1527,0,0,0,0,0,0,6.0546,6.0574,6.0814,6.0708,6.0739,6.0808,6.0872,6.0882,6.0923,6.0998,6.101,6.0945,6.1074,6.1096,6.1211,6.1264,6.1178,6.1187,6.1515,6.152,6.1525,6.1555,0,0,0,0,0,0,6.0536,6.0571,6.0618,6.0709,6.0744,6.0914,6.0875,6.0887,6.094,6.0939,6.1029,6.1042,6.1073,6.1197,6.1221,6.1276,6.1195,6.1511,6.1517,6.1524,6.1549,6.156,6.157,0,0,0,0,0,6.0525,6.0618,6.062,6.0649,6.0805,6.0917,6.0937,6.0972,6.0945,6.0992,6.104,6.1039,6.1254,6.1208,6.1236,6.1294,6.1507,6.1516,6.1523,6.1545,6.1558,6.1569,0,0,0,0,0,0,6.053,6.0631,6.0634,6.076,6.083,6.0918,6.0979,6.0985,6.1063,6.1058,6.1097,6.1118,6.1232,6.1274,6.1222,6.1416,6.1378,6.1391,6.1385,6.1398,6.1408,6.1396,6.1203,0,0,0,0,0,6.0546,6.063,6.0713,6.0816,6.0851,6.0909,6.0959,6.098,6.1054,6.1083,6.1139,6.121,6.1294,6.1348,6.1429,6.1555,6.1575,6.1609,6.1619,6.1627,6.1639,6.171,6.1726,6.1553,6.1553,6.1553,0,0,6.058,6.0645,6.0696,6.0819,6.0876,6.0961,6.0934,6.1025,6.1088,6.1096,6.1209,6.1253,6.1334,6.1456,6.1512,6.1495,6.1691,6.1637,6.1643,6.165,6.1719,6.1736,6.175,6.1558,6.1557,6.1556,0,0,6.0686,6.0743,6.0836,6.0894,6.0981,6.1019,6.1041,6.1129,6.1159,6.1273,6.1281,6.1356,6.1499,6.1557,6.1605,6.1734,6.1736,6.1759,6.1812,6.1881,6.1895,6.1907,6.1954,6.197,6.177,6.177,6.177,0,6.0716,6.0847,6.0883,6.0975,6.1029,6.1042,6.1136,6.119,6.1298,6.1335,6.1314,6.1495,6.155,6.1686,6.1717,6.1755,6.1782,6.1749,6.189,6.1903,6.1915,6.196,6.1978,6.1772,6.1772,6.1772,6.1772,0,6.0881,6.0971,6.1035,6.1142,6.1203,6.1295,6.1345,6.1403,6.1418,6.1458,6.1575,6.1641,6.1737,6.177,6.1786,6.1909,6.1896,6.1882,6.1844,6.1933,6.1976,6.1994,6.1776,6.1775,6.1774,6.1773,0,0,6.0995,6.1121,6.1144,6.1193,6.129,6.136,6.1453,6.1548,6.1597,6.167,6.175,6.1871,6.1859,6.1914,6.1936,6.1996,6.2095,6.1975,6.1978,6.1996,6.2236,6.2247,6.2267,6.2096,6.21,6.2103,6.223,0,6.1112,6.128,6.1316,6.1461,6.1545,6.1558,6.1639,6.1706,6.1746,6.1822,6.1865,6.1952,6.1929,6.1962,6.2022,6.207,6.2144,6.2061,6.2171,6.2174,6.2152,6.2289,6.2301,6.2418,6.2247,6.225,6.2252,0,6.1272,6.1352,6.1506,6.1593,6.1629,6.1701,6.1792,6.1865,6.1941,6.1966,6.2028,6.2044,6.214,6.2097,6.2231,6.2174,6.222,6.2251,6.2256,6.2269,6.2219,6.2307,6.2456,6.2474,6.2279,6.2276,6.2274,0,6.1342,6.1488,6.1599,6.164,6.1744,6.1795,6.184,6.1914,6.1969,6.2047,6.2083,6.2171,6.2219,6.2287,6.2326,6.229,6.2457,6.2417,6.2481,6.248,6.2516,6.2514,6.2676,6.2544,6.2544,6.2543,6.2543,0,6.1471,6.1564,6.1632,6.17,6.1806,6.1845,6.1948,6.1993,6.2059,6.2136,6.2151,6.2222,6.2269,6.2347,6.2378,6.2485,6.2506,6.2529,6.2536,6.2529,6.2526,6.256,6.2554,6.2548,6.2547,6.2546,6.2545,0,6.1567,6.1616,6.1738,6.1827,6.1852,6.1925,6.2001,6.2067,6.2107,6.2204,6.2229,6.2292,6.2385,6.243,6.2544,6.2565,6.2687,6.2688,6.2661,6.2665,6.2727,6.2721,6.2918,6.2947,6.2794,6.2795,6.2796,0,6.1646,6.1719,6.1816,6.187,6.1917,6.2002,6.2059,6.2101,6.2159,6.2253,6.2308,6.2402,6.2479,6.2626,6.2681,6.2769,6.2774,6.2837,6.2787,6.2778,6.2777,6.2772,6.278,6.2846,6.2848,6.2849,6.285,0,6.1783,6.1804,6.1886,6.1977,6.2045,6.2118,6.219,6.2233,6.2285,6.235,6.2446,6.2506,6.2624,6.2717,6.2809,6.2855,6.2862,6.2865,6.2885,6.2878,6.2861,6.2873,6.2687,6.2861,6.2859,6.2859,6.2858,6.2858,6.1874,6.194,6.202,6.2111,6.217,6.2237,6.2304,6.2353,6.2434,6.2535,6.2554,6.2656,6.2731,6.2856,6.2904,6.2984,6.297,6.2998,6.3006,6.3012,6.3016,6.2847,6.3001,6.3,6.3,6.3,6.3,0,6.2013,6.2065,6.2148,6.225,6.2321,6.2322,6.2402,6.2462,6.2552,6.2622,6.2699,6.2809,6.29,6.2962,6.3054,6.3106,6.3111,6.3129,6.3126,6.3136,6.3023,6.2998,6.3123,6.3123,6.3123,6.3123,6.3123,6.3123,6.2094,6.2206,6.2236,6.2377,6.2428,6.253,6.2575,6.2637,6.2694,6.2817,6.2893,6.2933,6.3001,6.3098,6.3181,6.3197,6.323,6.3248,6.3264,6.3157,6.3144,6.3132,6.3108,6.3255,6.3255,6.3371,6.3372,6.3373]}]]